PEGASUS R/B

基本信息
目录编号:
26375
目录名称:
PEGASUS R/B
国际标识:
2000-030B
轨道中心:
EARTH
物体状态:
在轨
发射日期:
2000-06-07 UTC
国别:
美国 (US)
轨道信息
数据来源: 国际轨道数据
星历时间: 2026-09-04T11:19:11+0800
半长轴: 7205.871km
偏心率: 0.0587984
轨道倾角: 68.944°
近地点辐角: 352.064°
升交点赤经: 304.289°
平近点角: 7.146°
近地点: 404.04km
远地点: 1251.428km
周期: 101.459分钟
每日圈数: 14.192962
详细信息
发射场:
WRAS
轨道高度:
LEO
数据来源:
AOE Integration Group
参考系:
TEME
时间系统:
UTC
历元类型:
SGP4
2D轨道图
3D轨道图
轨道高度分析图
轨道倾角分析图
轨道综合分析图
查看轨道综合分析图